Weather Roundup
Issued by NWS

Home | Current Version | Previous Version | Text Only | Print | Product List | Glossary On
Versions: 1 2 3 4 5 6 7 8 9 10 11 12 13 14 15 16 17 18 19 20 21 22 23 24 25 26 27 28 29 30 31 32 33 34 35 36 37 38 39 40 41 42 43 44 45 46 47 48 49 50
000
NZUS93 KARX 230510
HRRWXR

CURRENT HOURLY OBSERVATIONS ACROSS
MUCH OF THE UPPER MISSISSIPPI VALLEY
NATIONAL WEATHER SERVICE LA CROSSE WI
1200 AM CDT TUE SEP 23 2014


...SOUTHEAST MINNESOTA...


CITY           SKY/WX    TMP DP  RH WIND       PRES   REMARKS
ROCHESTER      CLEAR     49  46  90 S6        30.22S
ROCHESTER/MAYO FAIR      55  47  77 SE3       30.21S
WINONA         CLEAR     52  50  93 CALM      30.22S
AUSTIN         CLEAR     48  46  93 CALM      30.21S
ALBERT LEA     CLEAR     54  52  94 CALM      30.21S
DODGE CENTER   CLEAR     50  46  87 S5        30.21S
PRESTON        CLEAR     52  50  94 S5        30.23R
OWATONNA       CLEAR     55  48  76 SE6       30.20S
FARIBAULT      CLEAR     50  45  81 CALM      30.19F
$$

...ELSEWHERE IN MINNESOTA...


CITY           SKY/WX    TMP DP  RH WIND       PRES   REMARKS
MINNEAPOLIS    CLEAR     58  50  75 SE5       30.18S
INTNL FALLS    CLEAR     44  42  93 CALM      30.10S
DULUTH         CLEAR     56  48  74 W7        30.15S
RED WING       CLEAR     48  48 100 CALM      30.19R
REDWOOD FALLS  CLEAR     53  48  83 S6        30.15S
MANKATO        CLEAR     55  45  67 S7        30.18S
WORTHINGTON    PTCLDY    54  48  82 S6        30.18S
FAIRMONT       CLEAR     50  43  76 S5        30.19R
$$

...SOUTHWEST WISCONSIN...


CITY           SKY/WX    TMP DP  RH WIND       PRES   REMARKS
LA CROSSE      CLEAR     54  51  90 SE7       30.22R
PRAIRIE DU CHI CLEAR     50  48  93 CALM      30.24S
BOSCOBEL       FOG       48  46  93 CALM      30.24S VSB 3/4
LONE ROCK      PTCLDY    50  44  80 CALM      30.24S HAZE
PLATTEVILLE    CLEAR     53  48  83 SE3       30.25F
FORT MC COY    CLEAR     45  43  93 CALM      30.23F
CAMP DOUGLAS   CLEAR     43  43 100 CALM      30.22F FOG
VIROQUA        FAIR      54  49  83 SW3       30.23S
WIS DELLS      CLEAR     50  47  92 CALM      30.23S
$$

...ELSEWHERE IN WISCONSIN...


CITY           SKY/WX    TMP DP  RH WIND       PRES   REMARKS
MILWAUKEE      CLEAR     56  47  71 CALM      30.25S
MADISON        CLEAR     49  47  93 CALM      30.24S FOG
GREEN BAY      CLEAR     49  47  93 S3        30.20S
EAU CLAIRE     FOG       48  47  96 CALM      30.20S VSB 1/2
BLACK RVR FLS  FAIR      41  41 100 CALM      30.22R
MEDFORD        CLEAR     45  44  96 SW3       30.21S
WAUSAU         CLEAR     50  48  93 CALM      30.20S
WIS RAPIDS     FOG       48  47  96 CALM      30.23S VSB 1/4
MARSHFIELD     CLEAR     50  47  89 CALM      30.21F
RICE LAKE      FOG       49  47  95 CALM      30.21S VSB 3/4
$$

...NORTHEAST IOWA...


CITY           SKY/WX    TMP DP  RH WIND       PRES   REMARKS
WATERLOO       CLEAR     51  46  83 S3        30.22S
DUBUQUE        CLEAR     50  45  83 S3        30.25F
DECORAH        PTCLDY    54  48  82 CALM      30.23R
MASON CITY     CLEAR     48  46  93 S6        30.23S
CHARLES CITY   CLEAR     52  48  87 S6        30.23S
OELWEIN        CLEAR     50  46  87 S6        30.24S
$$

...ELSEWHERE IN IOWA...


CITY           SKY/WX    TMP DP  RH WIND       PRES   REMARKS
DES MOINES     PTCLDY    59  51  75 S7        30.22S
IOWA CITY      CLEAR     50  48  93 CALM      30.26F
FORT DODGE     PTCLDY    55  48  76 S5        30.21S
MARSHALLTOWN   PTCLDY    49  47  93 SE6       30.23R
CEDAR RAPIDS   CLEAR     51  49  92 S3        30.24S
$$

...NORTHERN ILLINOIS...


CITY           SKY/WX    TMP DP  RH WIND       PRES   REMARKS
CHICAGO-OHARE  CLEAR     54  45  71 S3        30.27S
DUPAGE         CLEAR     50  46  86 S5        30.27S
CHICAGO-MIDWAY CLEAR     56  44  64 S6        30.28R
MOLINE         CLEAR     48  46  93 CALM      30.26S
ROCKFORD       CLEAR     50  45  83 S3        30.28F
STERLING       CLEAR     45  41  87 SE3       30.26F
PEORIA         CLEAR     52  47  83 CALM      30.27F
$$

NOTE: "FAIR" INDICATES FEW OR NO CLOUDS BELOW 12,000 FEET WITH NO
SIGNIFICANT WEATHER AND/OR OBSTRUCTIONS TO VISIBILITY. WIND
SPEEDS ARE IN MILES-PER-HOUR.



USA.gov is the U.S. government's official web portal to all federal, state and local government web resources and services.